Location: Newark
(7.0858°N, 171.3717°E)
Time: 20:50:46
(UTC+00:00)

Tiros 1 - Pass Details

Date: 29 November 2020
Orbit: 630 x 663 km, 48.4° (Epoch: 18 January)

Event Time Altitude Azimuth Distance (km) Brightness Sun altitude
Rises 01:55:53 0° 241° (WSW) 2,974 11.1 53.4°
Reaches altitude 10° 01:58:30 10° 253° (WSW) 2,066 10.4 53.0°
Maximum altitude 02:02:34 28° 311° (NW) 1,243 9.0 52.4°
Drops below altitude 10° 02:06:38 10° 10° (N) 2,069 9.5 51.7°
Sets 02:09:16 0° 22° (NNE) 2,980 10.2 51.3°
